Theta_e
324 325 324 328 334 340 339 337 333 328 324 322 321 319 318 319 319 320 323 324 325 326 324 324 331 334 335 334 332 330 329 327
323 325 325 325 328 332 337 339 338 334 329 326 324 324 320 320 321 322 324 326 326 327 326 324 333 334 334 335 333 331 330 330
324 326 326 327 324 327 334 337 339 339 334 329 328 326 322 322 326 324 324 326 326 327 327 327 333 333 334 334 334 332 331 332
321 322 324 325 327 328 327 332 336 341 339 333 329 330 327 327 330 330 327 326 325 327 326 332 334 335 335 334 333 333 332 332
321 323 324 325 326 326 326 326 330 339 341 339 335 332 331 331 331 332 330 329 326 327 327 334 335 333 334 335 333 332 333 332
323 324 324 325 325 325 327 327 329 334 340 340 339 337 335 333 333 333 332 330 326 328 329 335 336 334 337 335 333 333 333 332
322 323 323 324 325 325 325 326 328 331 340 341 339 339 338 337 336 335 332 329 329 329 332 336 335 336 336 335 334 334 334 333
321 322 324 324 324 325 325 327 329 336 341 341 339 339 339 339 338 336 333 333 331 334 335 336 336 335 335 335 335 335 333 331
321 322 323 323 325 326 326 328 332 339 342 341 339 340 340 340 340 339 338 338 339 336 337 336 336 335 334 335 335 333 332 330
319 321 323 325 326 327 326 328 330 336 340 340 340 340 339 340 340 340 340 341 339 338 337 335 335 335 335 335 333 331 330 329
319 319 320 323 325 326 326 328 329 335 339 341 341 340 338 339 340 341 341 340 339 338 334 335 336 335 334 332 330 329 329 327
317 318 317 318 321 323 325 327 332 339 341 341 340 338 336 335 338 339 337 336 338 335 336 335 334 333 331 329 328 329 328 327
316 317 315 319 320 325 330 334 339 342 343 341 340 336 336 336 336 336 335 334 336 336 335 333 331 329 328 328 328 328 328 328
318 331 335 337 341 343 343 344 344 344 343 341 340 337 335 334 334 335 335 335 334 333 331 330 326 327 328 328 328 328 328 327
334 337 337 339 341 343 343 343 342 344 343 340 340 337 336 334 334 334 333 332 331 331 330 328 326 327 328 329 329 328 327 327
336 337 337 338 339 342 342 340 340 342 341 339 338 337 336 335 335 334 333 332 331 330 329 328 327 327 329 330 329 328 328 328
339 338 336 336 337 338 338 337 336 338 337 337 335 335 334 334 333 332 331 330 329 328 328 327 327 328 330 330 330 329 328 328
339 337 335 334 335 335 336 334 332 333 333 333 332 332 332 331 332 332 331 330 327 327 327 327 328 329 329 329 329 329 328 328
338 335 333 334 333 333 333 332 332 331 331 332 331 331 331 331 331 331 329 327 326 326 327 326 328 328 328 329 329 328 327 328
337 336 334 333 331 332 333 332 332 332 332 332 331 331 330 329 329 328 327 327 327 328 328 327 327 328 328 329 329 329 328 328
Wind_Speed
12 13 24 31 39 37 42 44 44 47 47 46 45 45 42 41 39 37 35 32 28 24 20 16 15 14 14 14 14 14 13 12
9 10 15 25 29 34 42 46 46 48 45 47 46 47 47 47 45 41 39 36 31 27 23 19 17 15 16 16 16 15 15 14
18 23 23 24 16 28 39 43 48 50 49 43 44 48 50 50 46 46 43 40 35 30 24 21 19 18 17 17 18 18 16 16
12 15 20 23 29 30 31 38 44 47 49 48 50 45 49 46 43 45 45 41 35 31 26 23 21 19 16 17 19 19 18 17
12 22 25 36 38 39 36 33 38 43 48 49 48 47 44 44 44 44 43 40 35 31 27 27 23 18 18 18 18 18 17 17
21 27 32 39 44 42 40 32 33 42 46 46 43 42 43 42 41 41 40 36 37 33 31 29 21 19 18 18 20 19 17 17
20 34 39 40 45 45 41 34 33 37 44 42 40 38 39 38 36 37 37 35 36 33 31 23 20 18 18 19 19 17 18 21
23 32 41 40 43 38 32 31 32 34 35 33 32 32 33 33 33 32 31 31 30 30 27 23 21 18 18 17 16 17 19 21
23 30 37 39 34 28 27 26 30 31 32 31 29 33 32 32 30 31 29 28 30 30 27 23 20 19 18 15 15 16 18 16
17 22 29 31 31 27 25 28 29 34 32 27 17 25 25 31 27 27 27 30 28 30 27 23 19 17 14 14 14 13 11 9
15 13 19 30 26 28 23 26 31 32 30 22 15 22 20 22 25 27 28 25 26 27 22 21 18 15 14 14 12 12 10 5
11 13 13 21 30 32 26 25 26 29 29 26 27 19 18 18 29 29 24 22 24 22 22 19 16 14 13 11 9 9 10 8
12 14 9 22 16 18 22 22 20 21 24 27 27 23 17 28 29 27 25 24 23 22 20 16 14 10 9 9 8 9 10 11
8 6 3 2 7 11 15 21 21 25 25 28 30 31 30 29 26 26 26 25 21 18 15 12 9 9 8 7 7 9 9 11
4 1 4 7 13 17 20 24 26 24 25 27 28 31 31 31 31 30 27 23 19 16 12 11 10 8 7 7 8 9 10 12
5 5 6 8 16 18 23 25 25 23 22 22 24 25 26 27 28 28 24 17 12 11 11 10 8 8 7 8 10 11 11 11
6 7 7 10 16 18 26 26 25 24 22 21 22 22 24 25 23 19 16 12 10 11 10 9 7 7 7 9 10 10 12 11
7 7 7 13 20 23 27 29 29 28 28 28 27 25 23 21 19 17 14 12 11 11 9 6 6 7 9 11 12 12 10 9
9 8 8 15 22 24 26 30 31 30 28 26 25 22 19 18 17 15 14 13 12 10 7 5 6 8 10 11 11 11 10 9
10 10 10 14 17 21 24 29 30 28 27 25 22 19 17 17 16 16 15 13 11 8 5 4 8 12 12 10 10 9 11 10
Wind_Direction
247 224 216 215 224 227 225 225 222 219 216 215 215 214 215 218 219 217 219 216 215 215 213 219 224 227 235 241 245 251 257 260
252 238 230 221 224 231 231 227 225 224 218 216 215 215 216 219 220 218 219 218 216 217 217 218 223 224 234 242 246 250 255 258
266 269 276 277 240 230 230 229 228 227 219 215 216 218 218 220 222 220 219 220 218 217 218 221 220 226 230 239 245 245 251 255
266 263 257 274 280 263 250 235 231 223 222 217 219 218 220 220 221 221 220 219 221 220 219 222 224 229 233 238 242 242 250 259
240 268 273 285 284 281 267 251 232 227 224 219 219 221 219 219 221 224 223 219 221 220 220 222 225 230 233 237 233 238 247 254
284 283 279 283 281 275 267 250 236 229 225 219 217 218 220 220 220 221 223 222 221 219 219 221 221 228 234 230 228 234 251 255
276 281 279 276 277 275 272 253 237 231 223 215 216 218 219 218 216 218 223 222 220 216 217 217 221 224 223 224 228 238 253 260
278 274 276 276 278 276 271 255 234 222 214 209 212 217 217 217 215 221 218 215 212 212 211 213 219 223 222 224 237 252 261 271
268 268 273 278 276 264 250 234 218 207 201 196 200 205 203 209 213 215 211 204 207 202 208 212 219 223 230 238 250 263 270 269
270 269 271 272 259 245 231 222 213 211 203 198 197 192 194 202 204 206 204 202 201 200 204 211 223 227 230 240 251 254 264 261
266 266 260 260 246 241 232 219 215 212 205 186 185 174 172 180 191 192 192 199 200 201 206 215 225 224 234 244 248 244 244 243
252 264 264 248 253 253 243 229 214 205 200 181 169 161 160 164 174 168 175 193 196 201 206 212 215 223 232 249 243 241 238 236
255 255 264 287 271 237 217 202 192 189 178 179 164 145 152 157 168 174 180 189 191 194 200 201 204 223 233 220 231 240 241 239
271 323 3 87 132 146 155 152 151 160 167 171 165 152 150 149 155 156 160 167 176 182 186 192 197 200 211 230 229 234 241 244
266 172 108 94 94 112 125 133 137 152 159 165 165 158 158 157 157 159 159 166 172 178 184 186 192 203 224 225 231 235 238 232
158 131 94 89 99 113 124 126 130 141 147 152 157 158 156 156 163 166 170 172 177 179 185 189 210 213 230 234 237 240 244 239
135 107 100 107 110 117 121 120 126 136 142 147 150 151 149 150 156 162 168 169 171 168 175 192 211 228 232 237 246 251 245 241
124 116 109 105 114 121 124 126 125 130 132 132 136 140 145 154 160 166 167 167 165 170 182 202 222 231 245 251 253 257 249 241
131 124 111 119 121 123 123 124 125 127 130 134 135 139 145 152 162 164 163 158 165 174 185 209 235 250 256 260 254 253 243 235
135 128 127 124 120 124 130 130 131 133 135 135 137 143 151 157 161 159 161 163 169 183 209 267 286 263 257 262 258 249 243 244